Austrian Airlines - Betriebsrat Bord

  • Increase font size
  • Default font size
  • Decrease font size
Austrian Airlines - Betriebsrat Bord

Passwort vergessen? Wie (re)aktiviere ich meinen Account?

Jeder Mitarbeiter des fliegenden OS-Personals hat Mitte Juni 2009 ein automatisches E-Mail an seine Firmen-Adresse mit den Zugangsdaten (User und Passwort)  zu on-board.at erhalten. Als User wurde vorname.nachname (der erste Teil Eurer Firmen-Adresse ohne@austrian.com) vergeben, das Passwort ist eine per Zufallsgenerator erstellte Zahlen-/Buchstabenkombination. Jeder Berechtigte hat somit bereits einen aktiven Account.

Sollten Euch Eure Zugangsdaten abhanden gekommen sein oder Ihr Probleme haben, Euch einzuloggen, dann könnt Ihr den Account wie folgt reaktivieren: (bitte auf READ MORE klicken):

Read more...
 

METAR and TAF

LOWW 012150Z 18006KT CAVOK 20/15 Q1017 NOSIG=

LOWW 011715Z 0118/0224 22006KT CAVOK TX31/0214Z TN18/0224Z BECMG 0209/0211 15012KT TEMPO 0212/0217 15015KT 9999 FEW050 FEW060CB FM021800 30012KT 9999 FEW050 FEW050CB TEMPO 0218/0224 30020G30KT TSRA BKN030 FEW030CB PROB30 TEMPO 0218/0220 32025G40KT 4000 +TSRA BKN020 FEW020CB=